This is the latest recevied weather packets stored in our database for station/object IT9CNT. If no packets are shown the sender has not sent any weather packets the latest 10 day(s).
| Time | Temp. | Humidity | Pressure | Rain* | Wind** | Luminosity | Snow |
|---|---|---|---|---|---|---|---|
| 1777549504 | 24.44° C | 64% | 1011.8 hPa | 0 mm | - | - | - |
| 1777549444 | 23.89° C | 65% | 1011.5 hPa | 0 mm | - | - | - |
| 1777549383 | 23.89° C | 64% | 1011.7 hPa | 0 mm | - | - | - |
| 1777549324 | 23.89° C | 64% | 1011.7 hPa | 0 mm | - | - | - |
| 1777549264 | 23.33° C | 66% | 1012 hPa | 0 mm | - | - | - |
| 1777549204 | 23.33° C | 65% | 1011.8 hPa | 0 mm | - | - | - |
| 1777549143 | 23.33° C | 64% | 1011.7 hPa | 0 mm | - | - | - |
| 1777549084 | 23.89° C | 65% | 1012 hPa | 0 mm | - | - | - |
| 1777549024 | 24.44° C | 65% | 1011.8 hPa | 0 mm | - | - | - |
| 1777548963 | 24.44° C | 66% | 1011.9 hPa | 0 mm | - | - | - |
| 1777548903 | 23.89° C | 66% | 1011.8 hPa | 0 mm | - | - | - |
| 1777548843 | 23.89° C | 65% | 1011.8 hPa | 0 mm | - | - | - |
| 1777548783 | 24.44° C | 66% | 1011.9 hPa | 0 mm | - | - | - |
| 1777548723 | 24.44° C | 65% | 1011.7 hPa | 0 mm | - | - | - |
| 1777548663 | 24.44° C | 64% | 1011.9 hPa | 0 mm | - | - | - |
| 1777548604 | 23.89° C | 65% | 1012 hPa | 0 mm | - | - | - |
| 1777548543 | 23.89° C | 64% | 1011.8 hPa | 0 mm | - | - | - |
| 1777548483 | 23.89° C | 65% | 1012 hPa | 0 mm | - | - | - |
| 1777548423 | 24.44° C | 63% | 1011.9 hPa | 0 mm | - | - | - |
| 1777548363 | 24.44° C | 66% | 1011.9 hPa | 0 mm | - | - | - |
| 1777548303 | 24.44° C | 65% | 1011.9 hPa | 0 mm | - | - | - |
| 1777548243 | 23.89° C | 66% | 1012 hPa | 0 mm | - | - | - |
| 1777548183 | 23.33° C | 66% | 1011.9 hPa | 0 mm | - | - | - |
| 1777548123 | 23.33° C | 65% | 1011.9 hPa | 0 mm | - | - | - |
| 1777548063 | 23.33° C | 66% | 1011.9 hPa | 0 mm | - | - | - |
* Rain latest hour (hover to see other rain measurements)
** Current wind speed in m/s (hover to see current wind gust speed)